Torna al catalogo

STARLINK-5456

AttivoComunicazioniVLEO
NORAD 55667·PAYLOAD·🇺🇸 United States

Lanciato Feb 17, 2023 da Vandenberg Space Force Base

Loading…

Prossimi Passaggi (prossime 24 ore)

TLE

AggiornatoSource: CelesTrak SupGP

Epoca: Sep 14, 2026, 22:32 UTC

1 55667C 23021AR  26257.93937500 -.00009801  00000+0 -82137-3 0  2575
2 55667  70.0020  47.1741 0002620 275.2493 140.9114 14.98334701    17

Traccia STARLINK-5456 in tempo reale con AllMySat

Download on the App Store